When you browse on this site, cookies collect data to enhance your experience and personalize the content and advertising you see.
Visit our Privacy Policy to learn more. By continuing to use the site, you agree to this use of cookies and data.
  • In Deutschland
  • Länderverzeichnis
  • Für 7 Tage
  • Wassertemperatur
  • Satellitenkarten
  • Wetterkarte
  • Widgets
  • user-avatar
    Anmelden

    Stündliche Wetter Goldene Küste

    Heute, 17 Juni, Montag

    Zeit Temperatur Niederschläge Wind Luftdruck Luftfeuchtigkeit
    00:00 +16°C° 0 mm 1 m/S 758 mmHg 95%
    01:00 +16°C° 0 mm 1 m/S 757 mmHg 94%
    02:00 +16°C° 0.1 mm 2 m/S 757 mmHg 94%
    03:00 +16°C° 0.1 mm 2 m/S 757 mmHg 95%
    04:00 +16°C° 0 mm 2 m/S 757 mmHg 95%
    05:00 +15°C° 0 mm 2 m/S 757 mmHg 95%
    06:00 +14°C° 0 mm 3 m/S 758 mmHg 96%
    07:00 +13°C° 0 mm 3 m/S 758 mmHg 96%
    08:00 +14°C° 0 mm 3 m/S 758 mmHg 82%
    09:00 +17°C° 0 mm 3 m/S 758 mmHg 68%
    10:00 +19°C° 0 mm 2 m/S 759 mmHg 55%
    11:00 +20°C° 0 mm 2 m/S 758 mmHg 48%
    12:00 +21°C° 0 mm 2 m/S 757 mmHg 42%
    13:00 +23°C° 0 mm 2 m/S 757 mmHg 36%
    14:00 +21°C° 0 mm 2 m/S 757 mmHg 40%
    15:00 +20°C° 0 mm 2 m/S 757 mmHg 45%
    16:00 +20°C° 0 mm 2 m/S 757 mmHg 49%
    17:00 +18°C° 0 mm 2 m/S 757 mmHg 56%
    18:00 +16°C° 0 mm 2 m/S 758 mmHg 62%
    19:00 +14°C° 0 mm 2 m/S 758 mmHg 68%
    20:00 +13°C° 0 mm 2 m/S 759 mmHg 69%
    21:00 +13°C° 0 mm 1 m/S 759 mmHg 69%
    22:00 +13°C° 0 mm 1 m/S 759 mmHg 70%
    23:00 +12°C° 0 mm 2 m/S 759 mmHg 71%

    Morgen, 18 Juni, Dienstag

    Zeit Temperatur Niederschläge Wind Luftdruck Luftfeuchtigkeit
    00:00 +12°C° 0 mm 2 m/S 758 mmHg 71%
    01:00 +12°C° 0 mm 2 m/S 758 mmHg 72%
    02:00 +12°C° 0 mm 2 m/S 758 mmHg 73%
    03:00 +12°C° 0 mm 2 m/S 758 mmHg 74%
    04:00 +10°C° 0 mm 2 m/S 758 mmHg 74%
    05:00 +10°C° 0 mm 2 m/S 759 mmHg 74%
    06:00 +10°C° 0 mm 2 m/S 759 mmHg 74%
    07:00 +10°C° 0 mm 2 m/S 759 mmHg 74%
    08:00 +14°C° 0 mm 2 m/S 759 mmHg 66%
    09:00 +17°C° 0 mm 2 m/S 759 mmHg 58%
    10:00 +20°C° 0 mm 2 m/S 759 mmHg 49%
    11:00 +20°C° 0 mm 2 m/S 758 mmHg 48%
    12:00 +21°C° 0 mm 2 m/S 758 mmHg 47%
    13:00 +23°C° 0 mm 2 m/S 757 mmHg 46%
    14:00 +21°C° 0 mm 2 m/S 757 mmHg 51%
    15:00 +22°C° 0 mm 1 m/S 757 mmHg 56%
    16:00 +21°C° 0 mm 1 m/S 757 mmHg 61%
    17:00 +19°C° 0 mm 1 m/S 758 mmHg 68%
    18:00 +16°C° 0 mm 1 m/S 758 mmHg 75%
    19:00 +14°C° 0 mm 2 m/S 758 mmHg 82%
    20:00 +14°C° 0 mm 2 m/S 758 mmHg 83%
    21:00 +14°C° 0 mm 2 m/S 758 mmHg 84%
    22:00 +13°C° 0 mm 2 m/S 758 mmHg 85%
    23:00 +13°C° 0 mm 2 m/S 758 mmHg 86%

    übermorgen, 19 Juni, Mittwoch

    Zeit Temperatur Niederschläge Wind Luftdruck Luftfeuchtigkeit
    00:00 +13°C° 0 mm 2 m/S 758 mmHg 86%
    01:00 +13°C° 0 mm 2 m/S 758 mmHg 87%
    02:00 +13°C° 0 mm 2 m/S 758 mmHg 88%
    03:00 +13°C° 0 mm 2 m/S 758 mmHg 90%
    04:00 +12°C° 0 mm 2 m/S 758 mmHg 91%
    05:00 +12°C° 0 mm 2 m/S 758 mmHg 91%
    06:00 +13°C° 0 mm 2 m/S 759 mmHg 92%
    07:00 +13°C° 0 mm 2 m/S 759 mmHg 92%
    08:00 +15°C° 0 mm 2 m/S 759 mmHg 81%
    09:00 +18°C° 0 mm 2 m/S 759 mmHg 71%
    10:00 +21°C° 0 mm 2 m/S 759 mmHg 60%
    11:00 +21°C° 0 mm 2 m/S 759 mmHg 60%
    12:00 +21°C° 0 mm 3 m/S 758 mmHg 60%
    13:00 +22°C° 0 mm 4 m/S 758 mmHg 60%
    14:00 +21°C° 0.1 mm 4 m/S 758 mmHg 65%
    15:00 +20°C° 0.1 mm 4 m/S 758 mmHg 70%
    16:00 +19°C° 0.1 mm 5 m/S 758 mmHg 75%
    17:00 +17°C° 0 mm 5 m/S 759 mmHg 80%
    18:00 +15°C° 0 mm 5 m/S 759 mmHg 85%
    19:00 +14°C° 0 mm 5 m/S 760 mmHg 90%
    20:00 +13°C° 0 mm 5 m/S 760 mmHg 91%
    21:00 +13°C° 0 mm 5 m/S 760 mmHg 93%
    22:00 +13°C° 0 mm 4 m/S 760 mmHg 94%
    23:00 +12°C° 0 mm 5 m/S 760 mmHg 95%

    20 Juni, Donnerstag

    Zeit Temperatur Niederschläge Wind Luftdruck Luftfeuchtigkeit
    00:00 +12°C° 0 mm 5 m/S 760 mmHg 95%
    01:00 +12°C° 0 mm 5 m/S 760 mmHg 96%
    02:00 +12°C° 0 mm 5 m/S 760 mmHg 96%
    03:00 +10°C° 0 mm 5 m/S 760 mmHg 95%
    04:00 +10°C° 0 mm 5 m/S 760 mmHg 95%
    05:00 +10°C° 0 mm 5 m/S 760 mmHg 95%
    06:00 +10°C° 0 mm 5 m/S 761 mmHg 94%
    07:00 +11°C° 0 mm 4 m/S 761 mmHg 94%
    08:00 +13°C° 0 mm 4 m/S 761 mmHg 85%
    09:00 +15°C° 0 mm 4 m/S 761 mmHg 75%
    10:00 +18°C° 0 mm 4 m/S 761 mmHg 66%
    11:00 +19°C° 0 mm 4 m/S 761 mmHg 62%
    12:00 +20°C° 0 mm 4 m/S 760 mmHg 59%
    13:00 +21°C° 0 mm 4 m/S 760 mmHg 55%
    14:00 +20°C° 0 mm 4 m/S 759 mmHg 59%
    15:00 +20°C° 0 mm 3 m/S 759 mmHg 63%
    16:00 +19°C° 0 mm 3 m/S 759 mmHg 68%
    17:00 +18°C° 0 mm 3 m/S 759 mmHg 71%
    18:00 +17°C° 0 mm 3 m/S 760 mmHg 74%
    19:00 +16°C° 0 mm 3 m/S 760 mmHg 77%
    20:00 +14°C° 0.1 mm 3 m/S 760 mmHg 81%
    21:00 +14°C° 0.1 mm 2 m/S 760 mmHg 85%
    22:00 +13°C° 0.1 mm 2 m/S 760 mmHg 88%
    23:00 +13°C° 0 mm 2 m/S 760 mmHg 88%

    21 Juni, Freitag

    Zeit Temperatur Niederschläge Wind Luftdruck Luftfeuchtigkeit
    00:00 +13°C° 0 mm 2 m/S 760 mmHg 88%
    01:00 +13°C° 0 mm 2 m/S 759 mmHg 88%
    02:00 +12°C° 0 mm 2 m/S 759 mmHg 88%
    03:00 +12°C° 0 mm 2 m/S 759 mmHg 88%
    04:00 +12°C° 0 mm 2 m/S 759 mmHg 88%
    05:00 +10°C° 0 mm 2 m/S 759 mmHg 88%
    06:00 +10°C° 0 mm 3 m/S 759 mmHg 87%
    07:00 +10°C° 0 mm 3 m/S 760 mmHg 87%
    08:00 +13°C° 0 mm 2 m/S 760 mmHg 72%
    09:00 +15°C° 0 mm 2 m/S 760 mmHg 57%
    10:00 +18°C° 0 mm 2 m/S 760 mmHg 42%
    11:00 +19°C° 0 mm 3 m/S 759 mmHg 37%
    12:00 +19°C° 0 mm 3 m/S 759 mmHg 32%
    13:00 +20°C° 0 mm 3 m/S 758 mmHg 27%
    14:00 +19°C° 0 mm 4 m/S 758 mmHg 33%
    15:00 +18°C° 0 mm 4 m/S 759 mmHg 39%
    16:00 +16°C° 0 mm 5 m/S 759 mmHg 44%
    17:00 +14°C° 0 mm 5 m/S 759 mmHg 53%
    18:00 +12°C° 0 mm 5 m/S 760 mmHg 61%
    19:00 +9°C° 0 mm 5 m/S 761 mmHg 69%
    20:00 +8°C° 0 mm 5 m/S 761 mmHg 71%
    21:00 +8°C° 0 mm 4 m/S 761 mmHg 73%
    22:00 +7°C° 0 mm 4 m/S 761 mmHg 74%
    23:00 +7°C° 0 mm 4 m/S 761 mmHg 73%

    22 Juni, Samstag

    Zeit Temperatur Niederschläge Wind Luftdruck Luftfeuchtigkeit
    00:00 +6°C° 0 mm 4 m/S 761 mmHg 72%
    01:00 +6°C° 0 mm 4 m/S 761 mmHg 70%
    02:00 +7°C° 0 mm 4 m/S 761 mmHg 71%
    03:00 +7°C° 0 mm 4 m/S 761 mmHg 72%
    04:00 +8°C° 0 mm 4 m/S 760 mmHg 72%
    05:00 +8°C° 0 mm 4 m/S 761 mmHg 78%
    06:00 +8°C° 0 mm 4 m/S 761 mmHg 83%
    07:00 +7°C° 0 mm 5 m/S 762 mmHg 88%
    08:00 +10°C° 0 mm 5 m/S 762 mmHg 79%
    09:00 +14°C° 0 mm 6 m/S 762 mmHg 69%
    10:00 +17°C° 0 mm 6 m/S 762 mmHg 60%
    11:00 +17°C° 0 mm 6 m/S 762 mmHg 58%
    12:00 +19°C° 0 mm 6 m/S 761 mmHg 56%
    13:00 +19°C° 0 mm 6 m/S 761 mmHg 54%
    14:00 +19°C° 0 mm 6 m/S 761 mmHg 57%
    15:00 +17°C° 0 mm 6 m/S 761 mmHg 60%
    16:00 +16°C° 0 mm 6 m/S 761 mmHg 63%
    17:00 +14°C° 0.1 mm 6 m/S 762 mmHg 71%
    18:00 +13°C° 0.1 mm 6 m/S 762 mmHg 80%
    19:00 +10°C° 0.1 mm 5 m/S 763 mmHg 88%
    20:00 +10°C° 0.1 mm 5 m/S 763 mmHg 90%
    21:00 +9°C° 0.1 mm 5 m/S 763 mmHg 92%
    22:00 +9°C° 0.1 mm 5 m/S 763 mmHg 94%
    23:00 +8°C° 0.1 mm 5 m/S 763 mmHg 94%
    Mehr zeigen